Point Lay, AK

4:50 PM AKDT on April 25, 2017 (GMT -0800)
Point Lay

Weather History for PPIZ - August, 2013

Change the Weather History Date:

Thursday, August 1, 2013

  Actual Average Record
Temperature  
Mean Temperature 56 °F -  
Max Temperature 61 °F 45 °F 64 °F (2005)
Min Temperature 50 °F 40 °F 33 °F (2008)
Degree Days  
Heating Degree Days 10    
Growing Degree Days 6 (Base 50)    
Moisture  
Dew Point 49 °F    
Average Humidity 80    
Maximum Humidity 93    
Minimum Humidity 62    
Precipitation  
Precipitation 0.00 in - - ()
Sea Level Pressure  
Sea Level Pressure 29.89 in    
Wind  
Wind Speed 9 mph (SSW)    
Max Wind Speed 14 mph    
Max Gust Speed -    
Visibility 10 miles    
Events      
Averages and records for this station are not official NWS values.
T = Trace of Precipitation, MM = Missing Value Source: NWS Daily Summary

Daily Weather History Graph

Daily Weather History Graph

Search for Another Location

Airport or City:

Trip Planner

Search our weather history database for the weather conditions in past years. The results will help you decide how hot, cold, wet, or windy it might be!

Date:

Astronomy

Aug. 01, 2013 Rise Set
Actual Time 4:31 AM AKDT 1:18 AM AKDT
Civil Twilight Sun does not set Sun does not set
Nautical Twilight Sun does not set Sun does not set
Astronomical Twilight Sun does not set Sun does not set
Moon No Moon Rise 10:38 PM AKDT (8/1)
Length of Visible Light 24h 00m
Length of Day
20h 46m
Waning Crescent, 22% of the Moon is Illuminated
Aug 1
Waning Crescent
Aug 6
New
Aug 14
First Quarter
Aug 20
Full
Aug 28
Last Quarter

Hourly Weather History & Observations

Time (AKDT) Temp. Dew Point Humidity Pressure Visibility Wind Dir Wind Speed Gust Speed Precip Events Conditions
12:56 AM 52.0 °F 50.0 °F 93% 29.98 in 10.0 mi SE 8.1 mph - N/A   Clear
1:56 AM 50.9 °F 48.9 °F 93% 29.98 in 10.0 mi SE 9.2 mph - N/A   Partly Cloudy
2:56 AM 52.9 °F 50.0 °F 90% 29.97 in 10.0 mi South 8.1 mph - N/A   Overcast
3:56 AM 52.9 °F 48.9 °F 86% 29.96 in 10.0 mi SSW 8.1 mph - N/A   Overcast
4:31 AM 51.8 °F 48.2 °F 88% 29.94 in 10.0 mi SSW 11.5 mph - N/A   Overcast
4:56 AM 52.9 °F 48.9 °F 86% 29.94 in 10.0 mi SSW 13.8 mph - N/A   Overcast
5:09 AM 53.6 °F 48.2 °F 82% 29.93 in 10.0 mi SSW 12.7 mph - N/A   Overcast
5:17 AM 51.8 °F 48.2 °F 88% 29.93 in 10.0 mi SSW 12.7 mph - N/A   Overcast
5:56 AM 52.0 °F 47.8 °F 86% 29.93 in 10.0 mi SSW 9.2 mph - N/A   Overcast
6:08 AM 51.8 °F 48.2 °F 88% 29.92 in 10.0 mi SSW 9.2 mph - N/A   Overcast
6:56 AM 52.0 °F 48.9 °F 89% 29.92 in 10.0 mi South 8.1 mph - N/A   Overcast
7:56 AM 52.9 °F 48.9 °F 86% 29.91 in 10.0 mi SSW 9.2 mph - N/A   Mostly Cloudy
8:56 AM 52.9 °F 50.0 °F 90% 29.90 in 10.0 mi South 8.1 mph - N/A   Overcast
9:56 AM 54.9 °F 48.9 °F 80% 29.89 in 10.0 mi SSW 11.5 mph - N/A   Clear
10:56 AM 54.9 °F 48.9 °F 80% 29.88 in 10.0 mi SSW 11.5 mph - N/A   Partly Cloudy
11:56 AM 55.9 °F 48.9 °F 77% 29.88 in 10.0 mi SSW 11.5 mph - N/A   Clear
12:56 PM 57.9 °F 48.9 °F 72% 29.87 in 10.0 mi South 11.5 mph - N/A   Clear
1:56 PM 57.9 °F 50.0 °F 75% 29.86 in 10.0 mi South 11.5 mph - N/A   Clear
2:56 PM 57.9 °F 50.0 °F 75% 29.85 in 10.0 mi SSW 12.7 mph - N/A   Clear
3:56 PM 59.0 °F 50.0 °F 72% 29.85 in 10.0 mi South 11.5 mph - N/A   Mostly Cloudy
4:56 PM 59.0 °F 50.9 °F 74% 29.84 in 10.0 mi SSW 9.2 mph - N/A   Clear
5:56 PM 59.9 °F 48.9 °F 67% 29.83 in 10.0 mi SSW 10.4 mph - N/A   Clear
6:56 PM 61.0 °F 48.9 °F 64% 29.82 in 10.0 mi South 10.4 mph - N/A   Clear
7:56 PM 61.0 °F 47.8 °F 62% 29.81 in 10.0 mi SSW 10.4 mph - N/A   Clear
8:56 PM 55.9 °F 47.8 °F 74% 29.81 in 10.0 mi WSW 6.9 mph - N/A   Clear
9:56 PM 55.9 °F 48.9 °F 77% 29.80 in 10.0 mi Calm Calm - N/A   Clear
10:56 PM 54.9 °F 46.9 °F 75% 29.80 in 10.0 mi Calm Calm - N/A   Clear
11:56 PM 54.9 °F 46.9 °F 75% 29.80 in 10.0 mi SW 5.8 mph - N/A   Clear